Regional Weather Roundup
Issued by NWS Midland/Odessa, TX

Skip options and go directly to product.
Home | Oldest Version | Previous Version | Current Version | All | Text Only | Save Text | Print | Product List | Glossary Off

Skip product version selection by date and time.   

925
ASUS44 KMAF 290510
RWRMAF
MIDLAND AREA WEATHER ROUNDUP
NATIONAL WEATHER SERVICE MIDLAND TX
1200 AM CDT FRI JUL 29 2016

...IN SOUTHWEST TEXAS AND SOUTHEAST NEW MEXICO...

CITY           SKY/WX    TMP DP  RH WIND       PRES   REMARKS
ALPINE         CLEAR     73  56  53 E6        30.21R
ANDREWS        FAIR      76  63  64 S10       30.08S
ARTESIA        CLEAR     82  57  42 S6        30.07R
BIG SPRING     PTCLDY    78  67  69 CALM      30.06S
CARLSBAD       CLEAR     80  58  46 SE6       30.04R
DRYDEN           N/A     80  65  59 SE10      30.03R
FORT STOCKTON  CLEAR     80  61  52 SE8       30.09R
GUAD PASS      CLEAR     74  54  49 NE12      30.22R
HOBBS          CLEAR     77  57  50 SE14G20   30.10R
MARFA          CLEAR     69  56  62 SE7       30.19R
MIDLAND AIRPK  PTCLDY    78  65  64 S9        30.07S
MIDLAND INTL   MOCLDY    75  68  78 SW9       30.06S
ODESSA         CLOUDY    76  65  68 SW10      30.08S
PECOS          CLOUDY    85  62  45 SE17      30.03R
PRESIDIO       FAIR      83  63  50 E8        30.02R
SEMINOLE       CLEAR     77  62  59 S9        30.09S
SNYDER           N/A     76  67  73 SW5       30.02F
WINK           CLOUDY    78  65  63 SE16G23   30.05R
$$
...OTHER STATIONS IN TEXAS...

CITY           SKY/WX    TMP DP  RH WIND       PRES   REMARKS
ABILENE        CLEAR     79  65  62 SE9       29.99F
AMARILLO       CLEAR     77  59  53 SE13      30.06R
AUSTIN         PTCLDY    74  73  97 CALM      29.98F
BROWNSVILLE    CLEAR     83  78  85 SE9       29.98R
CORPUS CHRISTI MOCLDY    82  77  84 SE8       29.97S
DALLAS FTW     MOCLDY    80  72  76 S8        29.94S
DEL RIO        CLOUDY    77  71  82 SE10      29.99F
EL PASO        PTCLDY    87  55  33 E15       30.03S
HOUSTON INT    PTCLDY    78  74  87 S3        29.99S
LUBBOCK        PTCLDY    81  63  54 S13       30.06S
SAN ANGELO     CLEAR     83  65  54 S14       30.00R
SAN ANTONIO    CLOUDY    75  68  78 NW3       30.02R
WACO           CLEAR     80  69  69 S15       29.95F
WICHITA FALLS  NOT AVBL
$$
...OTHER LOCATIONS IN NEW MEXICO...

CITY           SKY/WX    TMP DP  RH WIND       PRES   REMARKS
ALAMAGORDO     CLEAR     81  50  34 SE12      30.06S
ALBUQUERQUE    PTCLDY    84  46  26 SW6       30.12F
CANNON AFB     CLEAR     75  57  53 S9        30.11S
CLOVIS         CLEAR     72  54  53 S7        30.11F
HOLLOMAN AFB   CLEAR     86  50  28 SE9       30.04R
ROSWELL        CLEAR     81  57  43 S7        30.06R
RUIDOSO          N/A     68  46  45 SW6       30.33R
SANTA FE       CLEAR     76  42  29 SE9       30.20S
TRUTH OR CONSE CLEAR     85  53  33 W7        30.09R
TUCUMCARI      PTCLDY    78  54  43 S7        30.05F
$$

USA.gov is the U.S. government's official web portal to all federal, state and local government web resources and services.